When you browse on this site, cookies collect data to enhance your experience and personalize the content and advertising you see.
Visit our Privacy Policy to learn more. By continuing to use the site, you agree to this use of cookies and data.
  • In Latvia
  • List of Countries
  • For 7 days
  • Water Temperature
  • Satellite Maps
  • Weather Map
  • Weather Widgets
  • user-avatar
    Login

    Hourly Weather Misrata

    Today, 19 January, Saturday

    Time Temperature Precipitation Wind Pressure Humidity
    00:00 +14°C° 0 mm 2 mps 760 mmHg 61%
    01:00 +13°C° 0 mm 3 mps 760 mmHg 72%
    02:00 +13°C° 0 mm 3 mps 760 mmHg 73%
    03:00 +13°C° 0 mm 3 mps 759 mmHg 75%
    04:00 +13°C° 0 mm 3 mps 759 mmHg 76%
    05:00 +12°C° 0 mm 3 mps 759 mmHg 75%
    06:00 +12°C° 0 mm 3 mps 759 mmHg 75%
    07:00 +13°C° 0 mm 2 mps 759 mmHg 74%
    08:00 +13°C° 0 mm 3 mps 760 mmHg 68%
    09:00 +16°C° 0 mm 3 mps 760 mmHg 62%
    10:00 +17°C° 0 mm 3 mps 760 mmHg 56%
    11:00 +17°C° 0 mm 3 mps 759 mmHg 53%
    12:00 +18°C° 0 mm 3 mps 759 mmHg 50%
    13:00 +18°C° 0 mm 3 mps 759 mmHg 46%
    14:00 +18°C° 0 mm 3 mps 758 mmHg 48%
    15:00 +18°C° 0 mm 3 mps 758 mmHg 49%
    16:00 +18°C° 0 mm 4 mps 758 mmHg 50%
    17:00 +17°C° 0 mm 4 mps 758 mmHg 54%
    18:00 +15°C° 0 mm 4 mps 758 mmHg 58%
    19:00 +16°C° 0 mm 3 mps 758 mmHg 61%
    20:00 +14°C° 0 mm 3 mps 758 mmHg 62%
    21:00 +14°C° 0 mm 3 mps 759 mmHg 62%
    22:00 +14°C° 0 mm 3 mps 759 mmHg 63%
    23:00 +13°C° 0 mm 3 mps 759 mmHg 63%

    Tomorrow, 20 January, Sunday

    Time Temperature Precipitation Wind Pressure Humidity
    00:00 +13°C° 0 mm 3 mps 759 mmHg 64%
    01:00 +13°C° 0 mm 3 mps 759 mmHg 64%
    02:00 +13°C° 0 mm 3 mps 759 mmHg 64%
    03:00 +12°C° 0 mm 3 mps 759 mmHg 64%
    04:00 +12°C° 0 mm 4 mps 759 mmHg 64%
    05:00 +12°C° 0 mm 4 mps 759 mmHg 63%
    06:00 +11°C° 0 mm 4 mps 760 mmHg 62%
    07:00 +11°C° 0 mm 4 mps 760 mmHg 60%
    08:00 +12°C° 0 mm 4 mps 760 mmHg 53%
    09:00 +13°C° 0 mm 4 mps 760 mmHg 45%
    10:00 +14°C° 0 mm 4 mps 761 mmHg 37%
    11:00 +15°C° 0 mm 4 mps 760 mmHg 35%
    12:00 +17°C° 0 mm 4 mps 760 mmHg 32%
    13:00 +18°C° 0 mm 4 mps 759 mmHg 30%
    14:00 +18°C° 0 mm 3 mps 759 mmHg 28%
    15:00 +19°C° 0 mm 3 mps 759 mmHg 26%
    16:00 +19°C° 0 mm 3 mps 759 mmHg 24%
    17:00 +18°C° 0 mm 2 mps 759 mmHg 28%
    18:00 +17°C° 0 mm 2 mps 759 mmHg 32%
    19:00 +16°C° 0 mm 2 mps 760 mmHg 37%
    20:00 +15°C° 0 mm 1 mps 760 mmHg 39%
    21:00 +15°C° 0 mm 1 mps 760 mmHg 42%
    22:00 +14°C° 0 mm 1 mps 760 mmHg 44%
    23:00 +14°C° 0 mm 1 mps 760 mmHg 44%

    Day after tomorrow, 21 January, Monday

    Time Temperature Precipitation Wind Pressure Humidity
    00:00 +14°C° 0 mm 1 mps 760 mmHg 43%
    01:00 +14°C° 0 mm 2 mps 760 mmHg 43%
    02:00 +14°C° 0 mm 2 mps 760 mmHg 41%
    03:00 +13°C° 0 mm 3 mps 759 mmHg 40%
    04:00 +12°C° 0 mm 4 mps 759 mmHg 39%
    05:00 +12°C° 0 mm 4 mps 759 mmHg 40%
    06:00 +11°C° 0 mm 4 mps 759 mmHg 41%
    07:00 +11°C° 0 mm 4 mps 759 mmHg 42%
    08:00 +12°C° 0 mm 5 mps 759 mmHg 39%
    09:00 +14°C° 0 mm 6 mps 759 mmHg 36%
    10:00 +15°C° 0 mm 7 mps 760 mmHg 32%
    11:00 +16°C° 0 mm 7 mps 759 mmHg 31%
    12:00 +18°C° 0 mm 7 mps 758 mmHg 29%
    13:00 +20°C° 0 mm 7 mps 758 mmHg 28%
    14:00 +21°C° 0 mm 7 mps 757 mmHg 26%
    15:00 +21°C° 0 mm 6 mps 757 mmHg 24%
    16:00 +22°C° 0 mm 6 mps 757 mmHg 22%
    17:00 +21°C° 0 mm 5 mps 757 mmHg 24%
    18:00 +20°C° 0 mm 5 mps 757 mmHg 25%
    19:00 +19°C° 0 mm 4 mps 757 mmHg 27%
    20:00 +17°C° 0 mm 5 mps 757 mmHg 27%
    21:00 +17°C° 0 mm 5 mps 757 mmHg 28%
    22:00 +16°C° 0 mm 6 mps 757 mmHg 28%
    23:00 +16°C° 0 mm 6 mps 757 mmHg 28%

    22 January, Tuesday

    Time Temperature Precipitation Wind Pressure Humidity
    00:00 +16°C° 0 mm 5 mps 757 mmHg 27%
    01:00 +16°C° 0 mm 5 mps 757 mmHg 26%
    02:00 +15°C° 0 mm 5 mps 757 mmHg 27%
    03:00 +14°C° 0 mm 5 mps 757 mmHg 28%
    04:00 +13°C° 0 mm 5 mps 757 mmHg 29%
    05:00 +13°C° 0 mm 5 mps 757 mmHg 30%
    06:00 +13°C° 0 mm 5 mps 757 mmHg 31%
    07:00 +12°C° 0 mm 5 mps 757 mmHg 33%
    08:00 +14°C° 0 mm 5 mps 757 mmHg 32%
    09:00 +15°C° 0 mm 6 mps 757 mmHg 31%
    10:00 +16°C° 0 mm 6 mps 758 mmHg 31%
    11:00 +17°C° 0 mm 6 mps 757 mmHg 29%
    12:00 +20°C° 0 mm 6 mps 757 mmHg 28%
    13:00 +21°C° 0 mm 6 mps 756 mmHg 27%
    14:00 +21°C° 0 mm 6 mps 756 mmHg 27%
    15:00 +21°C° 0 mm 6 mps 755 mmHg 27%
    16:00 +21°C° 0 mm 5 mps 755 mmHg 27%
    17:00 +20°C° 0 mm 6 mps 755 mmHg 34%
    18:00 +18°C° 0 mm 7 mps 755 mmHg 41%
    19:00 +16°C° 0 mm 8 mps 755 mmHg 49%
    20:00 +16°C° 0.2 mm 8 mps 755 mmHg 56%
    21:00 +15°C° 0.2 mm 7 mps 756 mmHg 64%
    22:00 +14°C° 0.2 mm 7 mps 756 mmHg 71%
    23:00 +14°C° 0.4 mm 7 mps 755 mmHg 72%

    23 January, Wednesday

    Time Temperature Precipitation Wind Pressure Humidity
    00:00 +13°C° 0.4 mm 6 mps 755 mmHg 73%
    01:00 +13°C° 0.4 mm 5 mps 755 mmHg 74%
    02:00 +13°C° 0.4 mm 5 mps 754 mmHg 73%
    03:00 +13°C° 0.4 mm 5 mps 754 mmHg 72%
    04:00 +12°C° 0.4 mm 5 mps 754 mmHg 71%
    05:00 +12°C° 0.2 mm 4 mps 754 mmHg 70%
    06:00 +12°C° 0.2 mm 4 mps 754 mmHg 70%
    07:00 +12°C° 0.2 mm 3 mps 754 mmHg 70%
    08:00 +12°C° 0 mm 4 mps 754 mmHg 67%
    09:00 +13°C° 0 mm 4 mps 754 mmHg 63%
    10:00 +13°C° 0 mm 5 mps 754 mmHg 60%
    11:00 +14°C° 0 mm 5 mps 753 mmHg 53%
    12:00 +15°C° 0 mm 6 mps 752 mmHg 46%
    13:00 +16°C° 0 mm 6 mps 752 mmHg 39%
    14:00 +16°C° 0 mm 6 mps 751 mmHg 36%
    15:00 +17°C° 0 mm 7 mps 750 mmHg 33%
    16:00 +17°C° 0 mm 7 mps 750 mmHg 30%
    17:00 +16°C° 0 mm 7 mps 750 mmHg 30%
    18:00 +16°C° 0 mm 7 mps 750 mmHg 30%
    19:00 +15°C° 0 mm 7 mps 750 mmHg 30%
    20:00 +15°C° 0 mm 8 mps 750 mmHg 30%
    21:00 +15°C° 0 mm 8 mps 750 mmHg 30%
    22:00 +13°C° 0 mm 9 mps 750 mmHg 30%
    23:00 +13°C° 0 mm 9 mps 750 mmHg 35%

    24 January, Thursday

    Time Temperature Precipitation Wind Pressure Humidity
    00:00 +12°C° 0 mm 9 mps 749 mmHg 40%
    01:00 +11°C° 0 mm 9 mps 749 mmHg 46%
    02:00 +11°C° 0 mm 8 mps 749 mmHg 47%
    03:00 +10°C° 0 mm 8 mps 749 mmHg 48%
    04:00 +10°C° 0 mm 7 mps 749 mmHg 49%
    05:00 +10°C° 0 mm 7 mps 749 mmHg 48%
    06:00 +9°C° 0 mm 8 mps 749 mmHg 47%
    07:00 +9°C° 0 mm 8 mps 749 mmHg 46%
    08:00 +11°C° 0 mm 9 mps 749 mmHg 42%
    09:00 +12°C° 0 mm 11 mps 749 mmHg 38%
    10:00 +14°C° 0 mm 13 mps 749 mmHg 35%
    11:00 +15°C° 0 mm 13 mps 749 mmHg 30%
    12:00 +17°C° 0 mm 13 mps 749 mmHg 25%
    13:00 +19°C° 0 mm 13 mps 749 mmHg 21%
    14:00 +18°C° 0 mm 12 mps 749 mmHg 21%
    15:00 +18°C° 0 mm 12 mps 749 mmHg 21%
    16:00 +18°C° 0 mm 11 mps 749 mmHg 20%
    17:00 +17°C° 0 mm 9 mps 750 mmHg 23%
    18:00 +16°C° 0 mm 8 mps 750 mmHg 26%
    19:00 +15°C° 0 mm 6 mps 751 mmHg 29%
    20:00 +14°C° 0 mm 6 mps 752 mmHg 32%
    21:00 +14°C° 0 mm 6 mps 752 mmHg 35%
    22:00 +14°C° 0 mm 6 mps 753 mmHg 37%
    23:00 +13°C° 0 mm 5 mps 753 mmHg 40%
    Show more